Location: Czekanka
(50.4925°N, 19.2643°E)
Time: 13:10:34
(UTC+00:00)

Aureole 1 Rocket - Pass Details

Date: 15 June 2024
Orbit: 376 x 1259 km, 73.9° (Epoch: 15 July)

Event Time Altitude Azimuth Distance (km) Brightness Sun altitude
Exits shadow 00:37:47 16° 233° (SW) 1,343 4.3 -12.0°
Maximum altitude 00:40:27 45° 302° (WNW) 756 3.5 -11.8°
Drops below altitude 10° 00:44:50 10° 16° (NNE) 2,084 7.2 -11.5°
Sets 00:47:33 0° 22° (NNE) 3,168 8.8 -11.3°
